Find Starlink 3872

NORAD ID: 52453 Int'l Des: 2022-049 Owner: SPXS Country: US Constellation: starlink operational
LEOCIRCULAR

实时位置

正在加载3D地球...

关于 Starlink 3872

正在加载描述...

即将过境

Passes for default location (London). Set your location on the main map for personalized predictions.

高度历史

Loading altitude history...

两行轨道根数

1 52453U 22049C 26139.31649470 -.00000475 00000-0 -11766-4 0 9994
2 52453 53.2163 112.0645 0001356 80.7877 279.3268 15.08831318222777
Epoch: May 19, 2026 • Age: 15 hours

当前状态

高度 545.4 km
速度 7.60 km/s
星下点 53.37°N, 13.08°W
发射日期 May 6, 2022
运行时间 4 years
类型 internet

技术详情

分类 Payload
质量 297.00 kg
干质量 220.00 kg
总质量 297.00 kg
长度 0.20 m
直径 2.80 m
跨度 9.00 m
形状 Box + pan
制造商 SPXS
平台类型 Starlink
阶段状态 In Orbit
所有者/国家 SPXS/US

Most Searched